C/2017 U4 ( PanSTARRS )

Japanese version
Home page
Updated on October 28, 2018

---------------------------------------------------------------------

* Profile

Discovery Date October 27, 2017
Magnitude 21.7 mag
Discoverer Pan-STARRS 1 telescope (Haleakala)

* Pictures

* Orbital Elements

Epoch 2018 Oct. 9.0 TT = JDT 2458400.5
T 2018 Sept. 25.27168 TT                                MPCW
q   7.7242334            (2000.0)            P               Q
z  -0.0004759      Peri.  159.14988     +0.07899255     +0.93755895
 +/-0.0000029      Node   245.95087     +0.85404169     +0.11161559
e   1.0036758      Incl.  158.22661     +0.51417212     -0.32943159
From 67 observations 2017 Jan. 2-2018 Oct. 10, mean residual 0".4.

* Magnitudes Graph

        m1 = 7.0 + 5 log d + 10.0 log r

---------------------------------------------------------------------

The orbital elements are published on M.P.E.C. 2018-U70.
The magnitudes graphs are made with Comet for Windows.

---------------------------------------------------------------------

Copyright(C) Seiichi Yoshida (comet@aerith.net). All rights reserved.